Location: Barcelona
(41.3830°N, 2.1830°E)
Time: 12:21:25
(UTC+02:00)

ISS - Pass Details

Date: 25 May 2020
Orbit: 417 x 419 km, 51.6° (Epoch: 31 May)

Event Time Altitude Azimuth Distance (km) Brightness Sun altitude
Rises 22:18:25 0° 301° (WNW) 2,365 2.0 -10.8°
Reaches altitude 10° 22:21:16 10° 327° (NNW) 1,502 0.4 -11.2°
Maximum altitude 22:23:12 14° 2° (N) 1,263 -0.8 -11.5°
Drops below altitude 10° 22:25:08 10° 38° (NE) 1,502 -0.9 -11.8°
Sets 22:27:59 0° 64° (ENE) 2,367 -0.2 -12.2°
